Flag for Syria Weather past 2 weeks in Damascus, Syria

Now
50 °F

Clear.


Feels Like: 47 °F
Forecast: 49 / 71 °F
Wind: 7 mph from Northeast

Location: Damascus Int. Airport

Current Time: Feb 27, 2015 at 1:02:09 AM

Latest Report: Feb 27, 2015 at 12:00 AM


Visibility: 10 mi

Pressure: 30.24 "Hg

Humidity: 67%

Dew point: 39 °F

Location of DamascusLocation

Historic Weather in Damascus — Graph

°F

Damascus temperature yesterday

Maximum temperature yesterday: 66 °F (at 3:00 PM)
Minimum temperature yesterday: 39 °F (at 6:00 AM)
Average temperature yesterday: 53 °F

Past Weeks' High & Low Weather Summary

 TemperatureHumidityPressure
High66 °F (Feb 26, 3:00 PM)100% (Feb 14, 5:00 AM)30.30 "Hg (Feb 14, 5:00 AM)
Low28 °F (Feb 21, 7:00 AM)33% (Feb 24, 12:00 PM)29.56 "Hg (Feb 20, 5:00 PM)
Average44 °F74%29.99 "Hg
* Reported Midnight between Feb 11 and Feb 12 — Midnight between Feb 26 and Feb 27, Damascus, Weather by CustomWeather, © 2015

Note: Actual official high and low records may vary slightly from our data, if they occured in-between our weather recording intervals... More about our weather records

Advertising

Damascus weather history for previous 24 hours

 ConditionsComfort  
Time TempWeatherWind HumidityBarometerVisibility
12:00 AM
Fri, Feb 27
50 °FClear.7 mph67%30.24 "Hg10 mi
11:00 PM
Thu, Feb 26
52 °FClear.9 mph62%30.24 "Hg10 mi
10:00 PM50 °FClear.7 mph62%30.24 "Hg10 mi
9:00 PM52 °FClear.8 mph62%30.24 "Hg10 mi
8:00 PM52 °FClear.8 mph62%30.21 "Hg10 mi
7:00 PM54 °FClear.8 mph58%30.18 "Hg10 mi
6:00 PM57 °FClear.No wind51%30.15 "Hg10 mi
5:00 PM63 °FSunny.7 mph45%30.18 "Hg10 mi
4:00 PM64 °FSunny.7 mph37%30.21 "Hg10 mi
3:00 PM66 °FSunny.6 mph35%30.21 "Hg10 mi
2:00 PM64 °FPassing clouds.No wind46%30.21 "HgN/A
1:00 PM61 °FPassing clouds.2 mph52%30.24 "HgN/A
12:00 PM59 °FPassing clouds.5 mph55%30.27 "HgN/A
11:00 AM57 °FPassing clouds.5 mph59%30.30 "HgN/A
10:00 AM57 °FSunny.5 mph59%30.30 "Hg10 mi
9:00 AM52 °FSunny.No wind77%30.30 "Hg10 mi
8:00 AM45 °FFog.No wind87%30.30 "Hg2 mi
6:00 AM39 °FFog.No wind93%30.27 "Hg2 mi
5:00 AM41 °FClear.No wind93%30.24 "Hg10 mi
4:00 AM43 °FClear.No wind93%30.21 "Hg10 mi
3:00 AM45 °FClear.5 mph87%30.21 "Hg10 mi
2:00 AM45 °FClear.2 mph87%30.21 "Hg10 mi
1:00 AM45 °FClear.7 mph87%30.18 "Hg10 mi
Weather by CustomWeather, © 2015

See weather overviewHow to use our weather pages